This is the latest recevied weather packets stored in our database for station/object CE4JVU-10. If no packets are shown the sender has not sent any weather packets the latest 10 day(s).
| Time | Temp. | Humidity | Pressure | Rain* | Wind** | Luminosity | Snow |
|---|---|---|---|---|---|---|---|
| 1787421988 | 18.89° C | 54% | 979.6 hPa | - | - | - | - |
| 1787421088 | 18.89° C | 53% | 979.7 hPa | - | - | - | - |
| 1787420188 | 19.44° C | 55% | 979.8 hPa | - | - | - | - |
| 1787419288 | 18.89° C | 56% | 980.2 hPa | - | - | - | - |
| 1787418388 | 18.89° C | 56% | 980.4 hPa | - | - | - | - |
| 1787417488 | 18.33° C | 56% | 980.5 hPa | - | - | - | - |
| 1787416588 | 17.78° C | 57% | 980.7 hPa | - | - | - | - |
| 1787415688 | 17.78° C | 57% | 980.9 hPa | - | - | - | - |
| 1787414787 | 17.78° C | 58% | 981 hPa | - | - | - | - |
| 1787413887 | 17.22° C | 59% | 981.1 hPa | - | - | - | - |
| 1787412987 | 16.67° C | 61% | 981.4 hPa | - | - | - | - |
| 1787412088 | 16.11° C | 63% | 981.4 hPa | - | - | - | - |
| 1787411187 | 16.67° C | 64% | 981.5 hPa | - | - | - | - |
| 1787410287 | 17.22° C | 63% | 981.5 hPa | - | - | - | - |
| 1787409386 | 16.11° C | 64% | 981.6 hPa | - | - | - | - |
| 1787408486 | 16.67° C | 63% | 981.8 hPa | - | - | - | - |
| 1787407584 | 15.56° C | 65% | 981.7 hPa | - | - | - | - |
| 1787406684 | 15.56° C | 65% | 981.6 hPa | - | - | - | - |
| 1787405783 | 15.56° C | 66% | 981.5 hPa | - | - | - | - |
| 1787404883 | 15.56° C | 65% | 981.5 hPa | - | - | - | - |
| 1787403983 | 16.11° C | 65% | 981.5 hPa | - | - | - | - |
| 1787403083 | 16.11° C | 65% | 981.4 hPa | - | - | - | - |
| 1787402183 | 16.11° C | 65% | 981.3 hPa | - | - | - | - |
| 1787401283 | 16.11° C | 65% | 981.1 hPa | - | - | - | - |
| 1787400382 | 16.11° C | 65% | 981.1 hPa | - | - | - | - |
* Rain since midnight (hover to see other rain measurements)
** Current wind speed in m/s (hover to see current wind gust speed)